| time (UTC) | temp C | wind direction | speed KPH | gust KPH | rain 1hr cm | rain 24hr cm | rain mn cm | humidity % | barometer mb |
| 20260503201936 | 27 | 284 | 12.9 | 12.9 | 0.00 | 0.00 | 0.00 | 34 | 1011.2 |
| 20260503200347 | 27 | 250 | 4.8 | 14.5 | 0.00 | 0.00 | 0.00 | 35 | 1011.4 |
| 20260503194758 | 27 | 321 | 3.2 | 11.3 | 0.00 | 0.00 | 0.00 | 36 | 1011.5 |
| 20260503193209 | 27 | 37 | 6.4 | 14.5 | 0.00 | 0.00 | 0.00 | 36 | 1011.8 |
| 20260503190031 | 27 | 268 | 9.7 | 12.9 | 0.00 | 0.00 | 0.00 | 38 | 1011.9 |
| 20260503182854 | 25 | 271 | 1.6 | 14.5 | 0.00 | 0.00 | 0.00 | 40 | 1012.4 |
| 20260503181305 | 25 | 244 | 19.3 | 25.7 | 0.00 | 0.00 | 0.00 | 42 | 1012.9 |
| 20260503175715 | 25 | 254 | 3.2 | 3.2 | 0.00 | 0.00 | 0.00 | 43 | 1013.1 |
| 20260503174126 | 24 | 304 | 1.6 | 6.4 | 0.00 | 0.00 | 0.00 | 43 | 1013.6 |
| 20260503172539 | 23 | 301 | 1.6 | 12.9 | 0.00 | 0.00 | 0.00 | 44 | 1013.7 |
| 20260503170948 | 23 | 272 | 6.4 | 25.7 | 0.00 | 0.00 | 0.00 | 43 | 1013.9 |
| 20260503150319 | 17 | 349 | 4.8 | 14.5 | 0.00 | 0.00 | 0.00 | 55 | 1014.8 |
| 20260503131233 | 12 | 117 | 1.6 | 11.3 | 0.00 | 0.00 | 0.00 | 57 | 1016.2 |
| 20260503100245 | 9 | 227 | 4.8 | 11.3 | 0.00 | 0.00 | 0.00 | 60 | 1016.6 |
| 20260503081202 | 8 | 360 | 0.0 | 4.8 | 0.00 | 0.00 | 0.00 | 62 | 1017.6 |
| 20260503072435 | 8 | 208 | 1.6 | 3.2 | 0.00 | 0.00 | 0.00 | 63 | 1017.9 |
| 20260503070846 | 8 | 360 | 0.0 | 3.2 | 0.00 | 0.00 | 0.00 | 63 | 1018.1 |
| 20260503054941 | 9 | 236 | 4.8 | 4.8 | 0.00 | 0.00 | 0.00 | 61 | 1018.8 |
| 20260503053353 | 9 | 219 | 3.2 | 8.0 | 0.00 | 0.00 | 0.00 | 61 | 1018.9 |
| 20260503051807 | 9 | 246 | 1.6 | 4.8 | 0.00 | 0.00 | 0.00 | 61 | 1019.0 |
| 20260503050416 | 9 | 360 | 0.0 | 1.6 | 0.00 | 0.00 | 0.00 | 62 | 1019.4 |
| 20260503050214 | 9 | 360 | 0.0 | 1.6 | 0.00 | 0.00 | 0.00 | 62 | 1019.4 |
| 20260503044625 | 9 | 360 | 0.0 | 0.0 | 0.00 | 0.00 | 0.00 | 60 | 1019.7 |
| 20260503043037 | 9 | 360 | 0.0 | 1.6 | 0.00 | 0.00 | 0.00 | 61 | 1019.8 |
| 20260503041647 | 9 | 360 | 0.0 | 0.0 | 0.00 | 0.00 | 0.00 | 61 | 1019.9 |
| 20260503041448 | 9 | 360 | 0.0 | 0.0 | 0.00 | 0.00 | 0.00 | 61 | 1019.9 |
| 20260503035858 | 9 | 360 | 0.0 | 0.0 | 0.00 | 0.00 | 0.00 | 62 | 1020.1 |
| 20260503034310 | 9 | 360 | 0.0 | 1.6 | 0.00 | 0.00 | 0.00 | 61 | 1020.1 |
| 20260503032958 | 9 | 360 | 0.0 | 0.0 | 0.00 | 0.00 | 0.00 | 62 | 1020.3 |
| 20260503032720 | 9 | 360 | 0.0 | 0.0 | 0.00 | 0.00 | 0.00 | 62 | 1020.3 |
| 20260503031131 | 9 | 360 | 0.0 | 0.0 | 0.00 | 0.00 | 0.00 | 63 | 1020.5 |
| 20260503025542 | 9 | 360 | 0.0 | 0.0 | 0.00 | 0.00 | 0.00 | 66 | 1020.4 |
| 20260503023953 | 10 | 360 | 0.0 | 0.0 | 0.00 | 0.00 | 0.00 | 66 | 1020.4 |
| 20260503022404 | 10 | 360 | 0.0 | 0.0 | 0.00 | 0.00 | 0.00 | 64 | 1020.4 |
| 20260503020815 | 11 | 360 | 0.0 | 0.0 | 0.00 | 0.00 | 0.00 | 62 | 1020.4 |
| 20260503015232 | 12 | 360 | 0.0 | 0.0 | 0.00 | 0.00 | 0.00 | 59 | 1020.4 |
| 20260503013638 | 13 | 360 | 0.0 | 0.0 | 0.00 | 0.00 | 0.00 | 53 | 1020.3 |
| 20260503012049 | 15 | 360 | 0.0 | 0.0 | 0.00 | 0.00 | 0.00 | 48 | 1020.3 |
| 20260503010504 | 15 | 360 | 0.0 | 0.0 | 0.00 | 0.00 | 0.00 | 42 | 1020.3 |
| 20260503004911 | 16 | 360 | 0.0 | 3.2 | 0.00 | 0.00 | 0.00 | 36 | 1020.5 |
| 20260503003321 | 16 | 235 | 1.6 | 3.2 | 0.00 | 0.00 | 0.00 | 35 | 1020.3 |
| 20260503001733 | 17 | 360 | 0.0 | 4.8 | 0.00 | 0.00 | 0.00 | 32 | 1020.4 |
| 20260502233009 | 18 | 229 | 3.2 | 8.0 | 0.00 | 0.00 | 0.00 | 31 | 1020.7 |
| 20260502231416 | 18 | 228 | 3.2 | 12.9 | 0.00 | 0.00 | 0.00 | 29 | 1020.7 |
| 20260502225827 | 18 | 338 | 1.6 | 9.7 | 0.00 | 0.00 | 0.00 | 30 | 1020.8 |
| 20260502222650 | 18 | 360 | 0.0 | 1.6 | 0.00 | 0.00 | 0.00 | 28 | 1020.9 |
| 20260502215514 | 19 | 360 | 0.0 | 1.6 | 0.00 | 0.00 | 0.00 | 30 | 1021.2 |
| 20260502213924 | 19 | 360 | 0.0 | 8.0 | 0.00 | 0.00 | 0.00 | 27 | 1021.5 |
| 20260502212333 | 19 | 300 | 3.2 | 6.4 | 0.00 | 0.00 | 0.00 | 28 | 1021.7 |
| 20260502210745 | 18 | 360 | 0.0 | 0.0 | 0.00 | 0.00 | 0.00 | 29 | 1021.7 |
| 20260502205155 | 18 | 329 | 3.2 | 4.8 | 0.00 | 0.00 | 0.00 | 31 | 1022.0 |
| 20260502203611 | 18 | 238 | 4.8 | 12.9 | 0.00 | 0.00 | 0.00 | 30 | 1022.1 |